Location: Newark
(12.4436°N, 0.6167°W)
Time: 18:55:17
(UTC+00:00)

Vanguard 2 - Pass Details

Date: 14 December 2019
Orbit: 553 x 2938 km, 32.9° (Epoch: 27 January)

Event Time Altitude Azimuth Distance (km) Brightness Sun altitude
Rises 09:21:54 0° 288° (WNW) 6,366 11.8 37.9°
Reaches altitude 10° 09:27:17 10° 279° (W) 5,027 11.4 38.9°
Maximum altitude 09:38:17 30° 226° (SW) 2,852 10.7 40.8°
Drops below altitude 10° 09:45:47 10° 168° (SSE) 3,353 11.7 42.0°
Sets 09:48:37 0° 156° (SSE) 4,015 12.0 42.5°
